GOKTURK 1A

Last updated on Mon Sep 21 2026 00:02:46 GMT+0000 (Coordinated Universal Time)

1 41875U 16073A 26263.60082295 .00000144 00000+0 37427-4 0 9998 2 41875 98.1526 156.9104 0001576 75.4382 284.6995 14.62751704522775
UTC large
Height (km)
Speed (km/s)
/
Latitude / Longitude
Inclination (degrees)
Orbital Period (minutes)
Azimuth
Elevation
Range (km)
Doppler Factor

Next 0 passes for location: London (51.5072 / 0.1276)

No passes found over London.
GOKTURK 1A